Year,Month,Day,Hour,Minute,Value (Times are PST for temperature in C)
2016,06,16,00,00,7.20
2016,06,16,00,01,7.20
2016,06,16,00,02,7.20
2016,06,16,00,03,7.20
2016,06,16,00,04,7.20
2016,06,16,00,05,7.10
2016,06,16,00,06,7.10
2016,06,16,00,07,7.10
2016,06,16,00,08,7.00
2016,06,16,00,09,7.00
2016,06,16,00,10,6.90
2016,06,16,00,11,6.90
2016,06,16,00,12,6.90
2016,06,16,00,13,6.80
2016,06,16,00,14,6.80
2016,06,16,00,15,6.70
2016,06,16,00,16,6.70
2016,06,16,00,17,6.70
2016,06,16,00,18,6.60
2016,06,16,00,19,6.60
2016,06,16,00,20,6.60
2016,06,16,00,21,6.50
2016,06,16,00,22,6.50
2016,06,16,00,23,6.50
2016,06,16,00,24,6.50
2016,06,16,00,25,6.40
2016,06,16,00,26,6.30
2016,06,16,00,27,6.30
2016,06,16,00,28,6.30
2016,06,16,00,29,6.30
2016,06,16,00,30,6.30
2016,06,16,00,31,6.30
2016,06,16,00,32,6.30
2016,06,16,00,33,6.30
2016,06,16,00,34,6.30
2016,06,16,00,35,6.30
2016,06,16,00,36,6.30
2016,06,16,00,37,6.40
2016,06,16,00,38,6.40
2016,06,16,00,39,6.40
2016,06,16,00,40,6.50
2016,06,16,00,41,6.50
2016,06,16,00,42,6.60
2016,06,16,00,43,6.60
2016,06,16,00,44,6.60
2016,06,16,00,45,6.60
2016,06,16,00,46,6.60
2016,06,16,00,47,6.60
2016,06,16,00,48,6.60
2016,06,16,00,49,6.60
2016,06,16,00,50,6.60
2016,06,16,00,51,6.60
2016,06,16,00,52,6.60
2016,06,16,00,53,6.60
2016,06,16,00,54,6.60
2016,06,16,00,55,6.60
2016,06,16,00,56,6.60
2016,06,16,00,57,6.60
2016,06,16,00,58,6.50
2016,06,16,00,59,6.50
2016,06,16,01,00,6.40
2016,06,16,01,01,6.40
2016,06,16,01,02,6.40
2016,06,16,01,03,6.40
2016,06,16,01,04,6.40
2016,06,16,01,05,6.40
2016,06,16,01,06,6.40
2016,06,16,01,07,6.30
2016,06,16,01,08,6.30
2016,06,16,01,09,6.30
2016,06,16,01,10,6.30
2016,06,16,01,11,6.20
2016,06,16,01,12,6.20
2016,06,16,01,13,6.20
2016,06,16,01,14,6.20
2016,06,16,01,15,6.20
2016,06,16,01,16,6.10
2016,06,16,01,17,6.10
2016,06,16,01,18,6.10
2016,06,16,01,19,6.00
2016,06,16,01,20,6.00
2016,06,16,01,21,5.90
2016,06,16,01,22,5.90
2016,06,16,01,23,5.90
2016,06,16,01,24,5.90
2016,06,16,01,25,5.90
2016,06,16,01,26,5.90
2016,06,16,01,27,5.90
2016,06,16,01,28,5.90
2016,06,16,01,29,6.00
2016,06,16,01,30,5.90
2016,06,16,01,31,5.90
2016,06,16,01,32,5.90
2016,06,16,01,33,5.90
2016,06,16,01,34,5.90
2016,06,16,01,35,5.90
2016,06,16,01,36,5.90
2016,06,16,01,37,5.90
2016,06,16,01,38,5.80
2016,06,16,01,39,5.80
2016,06,16,01,40,5.80
2016,06,16,01,41,5.80
2016,06,16,01,42,5.80
2016,06,16,01,43,5.80
2016,06,16,01,44,5.80
2016,06,16,01,45,5.70
2016,06,16,01,46,5.70
2016,06,16,01,47,5.70
2016,06,16,01,48,5.70
2016,06,16,01,49,5.70
2016,06,16,01,50,5.60
2016,06,16,01,51,5.60
2016,06,16,01,52,5.60
2016,06,16,01,53,5.60
2016,06,16,01,54,5.60
2016,06,16,01,55,5.60
2016,06,16,01,56,5.60
2016,06,16,01,57,5.60
2016,06,16,01,58,5.60
2016,06,16,01,59,5.60
2016,06,16,02,00,5.60
2016,06,16,02,01,5.60
2016,06,16,02,02,5.70
2016,06,16,02,03,5.70
2016,06,16,02,04,5.70
2016,06,16,02,05,5.70
2016,06,16,02,06,5.70
2016,06,16,02,07,5.80
2016,06,16,02,08,5.80
2016,06,16,02,09,5.80
2016,06,16,02,10,5.80
2016,06,16,02,11,5.80
2016,06,16,02,12,5.80
2016,06,16,02,13,5.90
2016,06,16,02,14,5.90
2016,06,16,02,15,5.90
2016,06,16,02,16,5.90
2016,06,16,02,17,5.80
2016,06,16,02,18,5.80
2016,06,16,02,19,5.80
2016,06,16,02,20,5.80
2016,06,16,02,21,5.80
2016,06,16,02,22,5.70
2016,06,16,02,23,5.70
2016,06,16,02,24,5.70
2016,06,16,02,25,5.70
2016,06,16,02,26,5.70
2016,06,16,02,27,5.70
2016,06,16,02,28,5.70
2016,06,16,02,29,5.70
2016,06,16,02,30,5.70
2016,06,16,02,31,5.70
2016,06,16,02,32,5.70
2016,06,16,02,33,5.70
2016,06,16,02,34,5.70
2016,06,16,02,35,5.70
2016,06,16,02,36,5.70
2016,06,16,02,37,5.70
2016,06,16,02,38,5.70
2016,06,16,02,39,5.70
2016,06,16,02,40,5.70
2016,06,16,02,41,5.70
2016,06,16,02,42,5.70
2016,06,16,02,43,5.70
2016,06,16,02,44,5.80
2016,06,16,02,45,5.80
2016,06,16,02,46,5.70
2016,06,16,02,47,5.70
2016,06,16,02,48,5.70
2016,06,16,02,49,5.70
2016,06,16,02,50,5.60
2016,06,16,02,51,5.60
2016,06,16,02,52,5.60
2016,06,16,02,53,5.60
2016,06,16,02,54,5.60
2016,06,16,02,55,5.50
2016,06,16,02,56,5.50
2016,06,16,02,57,5.50
2016,06,16,02,58,5.40
2016,06,16,02,59,5.50
2016,06,16,03,00,5.50
2016,06,16,03,01,5.50
2016,06,16,03,02,5.50
2016,06,16,03,03,5.50
2016,06,16,03,04,5.50
2016,06,16,03,05,5.50
2016,06,16,03,06,5.40
2016,06,16,03,07,5.40
2016,06,16,03,08,5.40
2016,06,16,03,09,5.40
2016,06,16,03,10,5.40
2016,06,16,03,11,5.40
2016,06,16,03,12,5.30
2016,06,16,03,13,5.30
2016,06,16,03,14,5.30
2016,06,16,03,15,5.30
2016,06,16,03,16,5.20
2016,06,16,03,17,5.20
2016,06,16,03,18,5.20
2016,06,16,03,19,5.10
2016,06,16,03,20,5.10
2016,06,16,03,21,5.10
2016,06,16,03,22,5.10
2016,06,16,03,23,5.00
2016,06,16,03,24,5.00
2016,06,16,03,25,5.00
2016,06,16,03,26,5.00
2016,06,16,03,27,5.00
2016,06,16,03,28,5.00
2016,06,16,03,29,5.00
2016,06,16,03,30,4.90
2016,06,16,03,31,4.90
2016,06,16,03,32,4.90
2016,06,16,03,33,4.90
2016,06,16,03,34,4.90
2016,06,16,03,35,4.90
2016,06,16,03,36,4.90
2016,06,16,03,37,4.80
2016,06,16,03,38,4.80
2016,06,16,03,39,4.80
2016,06,16,03,40,4.80
2016,06,16,03,41,4.80
2016,06,16,03,42,4.80
2016,06,16,03,43,4.80
2016,06,16,03,44,4.70
2016,06,16,03,45,4.70
2016,06,16,03,46,4.70
2016,06,16,03,47,4.70
2016,06,16,03,48,4.70
2016,06,16,03,49,4.70
2016,06,16,03,50,4.70
2016,06,16,03,51,4.70
2016,06,16,03,52,4.70
2016,06,16,03,53,4.70
2016,06,16,03,54,4.60
2016,06,16,03,55,4.60
2016,06,16,03,56,4.60
2016,06,16,03,57,4.60
2016,06,16,03,58,4.60
2016,06,16,03,59,4.60
2016,06,16,04,00,4.60
2016,06,16,04,01,4.60
2016,06,16,04,02,4.60
2016,06,16,04,03,4.60
2016,06,16,04,04,4.60
2016,06,16,04,05,4.60
2016,06,16,04,06,4.60
2016,06,16,04,07,4.60
2016,06,16,04,08,4.60
2016,06,16,04,09,4.60
2016,06,16,04,10,4.60
2016,06,16,04,11,4.60
2016,06,16,04,12,4.60
2016,06,16,04,13,4.60
2016,06,16,04,14,4.60
2016,06,16,04,15,4.60
2016,06,16,04,16,4.70
2016,06,16,04,17,4.60
2016,06,16,04,18,4.60
2016,06,16,04,19,4.60
2016,06,16,04,20,4.60
2016,06,16,04,21,4.60
2016,06,16,04,22,4.60
2016,06,16,04,23,4.60
2016,06,16,04,24,4.60
2016,06,16,04,25,4.50
2016,06,16,04,26,4.50
2016,06,16,04,27,4.50
2016,06,16,04,28,4.50
2016,06,16,04,29,4.40
2016,06,16,04,30,4.40
2016,06,16,04,31,4.40
2016,06,16,04,32,4.40
2016,06,16,04,33,4.40
2016,06,16,04,34,4.40
2016,06,16,04,35,4.30
2016,06,16,04,36,4.30
2016,06,16,04,37,4.30
2016,06,16,04,38,4.30
2016,06,16,04,39,4.30
2016,06,16,04,40,4.30
2016,06,16,04,41,4.30
2016,06,16,04,42,4.20
2016,06,16,04,43,4.20
2016,06,16,04,44,4.20
2016,06,16,04,45,4.20
2016,06,16,04,46,4.20
2016,06,16,04,47,4.20
2016,06,16,04,48,4.20
2016,06,16,04,49,4.10
2016,06,16,04,50,4.10
2016,06,16,04,51,4.10
2016,06,16,04,52,4.10
2016,06,16,04,53,4.10
2016,06,16,04,54,4.10
2016,06,16,04,55,4.10
2016,06,16,04,56,4.10
2016,06,16,04,57,4.10
2016,06,16,04,58,4.10
2016,06,16,04,59,4.10
2016,06,16,05,00,4.10
2016,06,16,05,01,4.10
2016,06,16,05,02,4.10
2016,06,16,05,03,4.10
2016,06,16,05,04,4.10
2016,06,16,05,05,4.00
2016,06,16,05,06,4.00
2016,06,16,05,07,4.00
2016,06,16,05,08,4.00
2016,06,16,05,09,4.00
2016,06,16,05,10,4.00
2016,06,16,05,11,4.00
2016,06,16,05,12,4.00
2016,06,16,05,13,4.00
2016,06,16,05,14,4.00
2016,06,16,05,15,4.00
2016,06,16,05,16,4.00
2016,06,16,05,17,4.00
2016,06,16,05,18,4.10
2016,06,16,05,19,4.10
2016,06,16,05,20,4.10
2016,06,16,05,21,4.10
2016,06,16,05,22,4.10
2016,06,16,05,23,4.10
2016,06,16,05,24,4.10
2016,06,16,05,25,4.10
2016,06,16,05,26,4.10
2016,06,16,05,27,4.10
2016,06,16,05,28,4.10
2016,06,16,05,29,4.10
2016,06,16,05,30,4.10
2016,06,16,05,31,4.10
2016,06,16,05,32,4.10
2016,06,16,05,33,4.10
2016,06,16,05,34,4.10
2016,06,16,05,35,4.10
2016,06,16,05,36,4.10
2016,06,16,05,37,4.10
2016,06,16,05,38,4.10
2016,06,16,05,39,4.10
2016,06,16,05,40,4.10
2016,06,16,05,41,4.10
2016,06,16,05,42,4.10
2016,06,16,05,43,4.10
2016,06,16,05,44,4.10
2016,06,16,05,45,4.10
2016,06,16,05,46,4.10
2016,06,16,05,47,4.10
2016,06,16,05,48,4.10
2016,06,16,05,49,4.10
2016,06,16,05,50,4.10
2016,06,16,05,51,4.10
2016,06,16,05,52,4.10
2016,06,16,05,53,4.10
2016,06,16,05,54,4.10
2016,06,16,05,55,4.10
2016,06,16,05,56,4.10
2016,06,16,05,57,4.00
2016,06,16,05,58,4.00
2016,06,16,05,59,4.00
2016,06,16,06,00,4.00
2016,06,16,06,01,4.00
2016,06,16,06,02,4.00
2016,06,16,06,03,4.00
2016,06,16,06,04,4.00
2016,06,16,06,05,4.00
2016,06,16,06,06,4.00
2016,06,16,06,07,4.10
2016,06,16,06,08,4.10
2016,06,16,06,09,4.10
2016,06,16,06,10,4.10
2016,06,16,06,11,4.10
2016,06,16,06,12,4.10
2016,06,16,06,13,4.10
2016,06,16,06,14,4.10
2016,06,16,06,15,4.10
2016,06,16,06,16,4.10
2016,06,16,06,17,4.10
2016,06,16,06,18,4.10
2016,06,16,06,19,4.10
2016,06,16,06,20,4.20
2016,06,16,06,21,4.20
2016,06,16,06,22,4.20
2016,06,16,06,23,4.20
2016,06,16,06,24,4.20
2016,06,16,06,25,4.20
2016,06,16,06,26,4.20
2016,06,16,06,27,4.20
2016,06,16,06,28,4.20
2016,06,16,06,29,4.20
2016,06,16,06,30,4.10
2016,06,16,06,31,4.10
2016,06,16,06,32,4.10
2016,06,16,06,33,4.10
2016,06,16,06,34,4.10
2016,06,16,06,35,4.10
2016,06,16,06,36,4.10
2016,06,16,06,37,4.10
2016,06,16,06,38,4.10
2016,06,16,06,39,4.10
2016,06,16,06,40,4.10
2016,06,16,06,41,4.10
2016,06,16,06,42,4.10
2016,06,16,06,43,4.10
2016,06,16,06,44,4.10
2016,06,16,06,45,4.10
2016,06,16,06,46,4.10
2016,06,16,06,47,4.10
2016,06,16,06,48,4.10
2016,06,16,06,49,4.20
2016,06,16,06,50,4.20
2016,06,16,06,51,4.20
2016,06,16,06,52,4.20
2016,06,16,06,53,4.20
2016,06,16,06,54,4.20
2016,06,16,06,55,4.20
2016,06,16,06,56,4.20
2016,06,16,06,57,4.30
2016,06,16,06,58,4.30
2016,06,16,06,59,4.30
2016,06,16,07,00,4.40
2016,06,16,07,01,4.40
2016,06,16,07,02,4.40
2016,06,16,07,03,4.40
2016,06,16,07,04,4.50
2016,06,16,07,05,4.50
2016,06,16,07,06,4.60
2016,06,16,07,07,4.60
2016,06,16,07,08,4.60
2016,06,16,07,09,4.70
2016,06,16,07,10,4.70
2016,06,16,07,11,4.70
2016,06,16,07,12,4.70
2016,06,16,07,13,4.80
2016,06,16,07,14,4.80
2016,06,16,07,15,4.80
2016,06,16,07,16,4.80
2016,06,16,07,17,4.90
2016,06,16,07,18,4.90
2016,06,16,07,19,5.00
2016,06,16,07,20,5.10
2016,06,16,07,21,5.10
2016,06,16,07,22,5.20
2016,06,16,07,23,5.20
2016,06,16,07,24,5.30
2016,06,16,07,25,5.30
2016,06,16,07,26,5.40
2016,06,16,07,27,5.40
2016,06,16,07,28,5.50
2016,06,16,07,29,5.50
2016,06,16,07,30,5.60
2016,06,16,07,31,5.60
2016,06,16,07,32,5.70
2016,06,16,07,33,5.80
2016,06,16,07,34,5.80
2016,06,16,07,35,5.90
2016,06,16,07,36,6.00
2016,06,16,07,37,6.00
2016,06,16,07,38,6.10
2016,06,16,07,39,6.20
2016,06,16,07,40,6.20
2016,06,16,07,41,6.20
2016,06,16,07,42,6.40
2016,06,16,07,43,6.50
2016,06,16,07,44,6.60
2016,06,16,07,45,6.70
2016,06,16,07,46,6.80
2016,06,16,07,47,6.90
2016,06,16,07,48,6.90
2016,06,16,07,49,7.00
2016,06,16,07,50,7.00
2016,06,16,07,51,7.10
2016,06,16,07,52,7.20
2016,06,16,07,53,7.20
2016,06,16,07,54,7.20
2016,06,16,07,55,7.30
2016,06,16,07,56,7.40
2016,06,16,07,57,7.50
2016,06,16,07,58,7.50
2016,06,16,07,59,7.60
2016,06,16,08,00,7.70
2016,06,16,08,01,7.80
2016,06,16,08,02,7.80
2016,06,16,08,03,7.90
2016,06,16,08,04,8.00
2016,06,16,08,05,8.10
2016,06,16,08,06,8.20
2016,06,16,08,07,8.30
2016,06,16,08,08,8.40
2016,06,16,08,09,8.50
2016,06,16,08,10,8.70
2016,06,16,08,11,8.80
2016,06,16,08,12,8.90
2016,06,16,08,13,9.00
2016,06,16,08,14,9.10
2016,06,16,08,15,9.20
2016,06,16,08,16,9.20
2016,06,16,08,17,9.30
2016,06,16,08,18,9.40
2016,06,16,08,19,9.50
2016,06,16,08,20,9.60
2016,06,16,08,21,9.60
2016,06,16,08,22,9.60
2016,06,16,08,23,9.60
2016,06,16,08,24,9.70
2016,06,16,08,25,9.70
2016,06,16,08,26,9.70
2016,06,16,08,27,9.70
2016,06,16,08,28,9.70
2016,06,16,08,29,9.80
2016,06,16,08,30,9.80
2016,06,16,08,31,9.70
2016,06,16,08,32,9.70
2016,06,16,08,33,9.70
2016,06,16,08,34,9.70
2016,06,16,08,35,9.70
2016,06,16,08,36,9.70
2016,06,16,08,37,9.80
2016,06,16,08,38,9.80
2016,06,16,08,39,9.80
2016,06,16,08,40,9.70
2016,06,16,08,41,9.70
2016,06,16,08,42,9.70
2016,06,16,08,43,9.70
2016,06,16,08,44,9.70
2016,06,16,08,45,9.70
2016,06,16,08,46,9.70
2016,06,16,08,47,9.70
2016,06,16,08,48,9.70
2016,06,16,08,49,9.70
2016,06,16,08,50,9.80
2016,06,16,08,51,9.90
2016,06,16,08,52,10.00
2016,06,16,08,53,10.10
2016,06,16,08,54,10.20
2016,06,16,08,55,10.30
2016,06,16,08,56,10.40
2016,06,16,08,57,10.50
2016,06,16,08,58,10.60
2016,06,16,08,59,10.70
2016,06,16,09,00,10.80
2016,06,16,09,01,11.00
2016,06,16,09,02,11.00
2016,06,16,09,03,11.10
2016,06,16,09,04,11.10
2016,06,16,09,05,11.10
2016,06,16,09,06,11.10
2016,06,16,09,07,11.10
2016,06,16,09,08,11.10
2016,06,16,09,09,11.20
2016,06,16,09,10,11.10
2016,06,16,09,11,11.10
2016,06,16,09,12,11.10
2016,06,16,09,13,11.10
2016,06,16,09,14,11.20
2016,06,16,09,15,11.20
2016,06,16,09,16,11.30
2016,06,16,09,17,11.30
2016,06,16,09,18,11.30
2016,06,16,09,19,11.40
2016,06,16,09,20,11.50
2016,06,16,09,21,11.60
2016,06,16,09,22,11.70
2016,06,16,09,23,11.80
2016,06,16,09,24,11.90
2016,06,16,09,25,11.90
2016,06,16,09,26,12.00
2016,06,16,09,27,12.00
2016,06,16,09,28,12.10
2016,06,16,09,29,12.20
2016,06,16,09,30,12.20
2016,06,16,09,31,12.20
2016,06,16,09,32,12.20
2016,06,16,09,33,12.10
2016,06,16,09,34,12.10
2016,06,16,09,35,12.00
2016,06,16,09,36,12.00
2016,06,16,09,37,12.00
2016,06,16,09,38,12.10
2016,06,16,09,39,12.10
2016,06,16,09,40,12.10
2016,06,16,09,41,12.20
2016,06,16,09,42,12.20
2016,06,16,09,43,12.30
2016,06,16,09,44,12.40
2016,06,16,09,45,12.50
2016,06,16,09,46,12.60
2016,06,16,09,47,12.70
2016,06,16,09,48,12.90
2016,06,16,09,49,13.00
2016,06,16,09,50,13.20
2016,06,16,09,51,13.30
2016,06,16,09,52,13.40
2016,06,16,09,53,13.60
2016,06,16,09,54,13.70
2016,06,16,09,55,13.80
2016,06,16,09,56,13.80
2016,06,16,09,57,13.90
2016,06,16,09,58,14.00
2016,06,16,09,59,14.00
2016,06,16,10,00,14.10
2016,06,16,10,01,14.20
2016,06,16,10,02,14.20
2016,06,16,10,03,14.20
2016,06,16,10,04,14.20
2016,06,16,10,05,14.20
2016,06,16,10,06,14.20
2016,06,16,10,07,14.30
2016,06,16,10,08,14.30
2016,06,16,10,09,14.30
2016,06,16,10,10,14.40
2016,06,16,10,11,14.40
2016,06,16,10,12,14.30
2016,06,16,10,13,14.30
2016,06,16,10,14,14.30
2016,06,16,10,15,14.30
2016,06,16,10,16,14.40
2016,06,16,10,17,14.30
2016,06,16,10,18,14.30
2016,06,16,10,19,14.30
2016,06,16,10,20,14.30
2016,06,16,10,21,14.30
2016,06,16,10,22,14.30
2016,06,16,10,23,14.20
2016,06,16,10,24,14.20
2016,06,16,10,25,14.20
2016,06,16,10,26,14.20
2016,06,16,10,27,14.20
2016,06,16,10,28,14.20
2016,06,16,10,29,14.20
2016,06,16,10,30,14.30
2016,06,16,10,31,14.30
2016,06,16,10,32,14.40
2016,06,16,10,33,14.40
2016,06,16,10,34,14.50
2016,06,16,10,35,14.60
2016,06,16,10,36,14.70
2016,06,16,10,37,14.80
2016,06,16,10,38,14.90
2016,06,16,10,39,14.90
2016,06,16,10,40,15.00
2016,06,16,10,41,15.00
2016,06,16,10,42,14.80
2016,06,16,10,43,14.70
2016,06,16,10,44,14.50
2016,06,16,10,45,14.40
2016,06,16,10,46,14.20
2016,06,16,10,47,14.10
2016,06,16,10,48,14.10
2016,06,16,10,49,14.10
2016,06,16,10,50,14.10
2016,06,16,10,51,14.20
2016,06,16,10,52,14.20
2016,06,16,10,53,14.30
2016,06,16,10,54,14.30
2016,06,16,10,55,14.40
2016,06,16,10,56,14.40
2016,06,16,10,57,14.40
2016,06,16,10,58,14.50
2016,06,16,10,59,14.50
2016,06,16,11,00,14.60
2016,06,16,11,01,14.70
2016,06,16,11,02,14.70
2016,06,16,11,03,14.70
2016,06,16,11,04,14.70
2016,06,16,11,05,14.70
2016,06,16,11,06,14.70
2016,06,16,11,07,14.70
2016,06,16,11,08,14.70
2016,06,16,11,09,14.70
2016,06,16,11,10,14.50
2016,06,16,11,11,14.50
2016,06,16,11,12,14.40
2016,06,16,11,13,14.30
2016,06,16,11,14,14.30
2016,06,16,11,15,14.20
2016,06,16,11,16,14.20
2016,06,16,11,17,14.10
2016,06,16,11,18,14.10
2016,06,16,11,19,14.10
2016,06,16,11,20,14.10
2016,06,16,11,21,14.10
2016,06,16,11,22,14.20
2016,06,16,11,23,14.30
2016,06,16,11,24,14.40
2016,06,16,11,25,14.40
2016,06,16,11,26,14.50
2016,06,16,11,27,14.60
2016,06,16,11,28,14.70
2016,06,16,11,29,15.00
2016,06,16,11,30,15.00
2016,06,16,11,31,15.00
2016,06,16,11,32,15.20
2016,06,16,11,33,15.10
2016,06,16,11,34,15.10
2016,06,16,11,35,15.20
2016,06,16,11,36,15.30
2016,06,16,11,37,15.30
2016,06,16,11,38,15.30
2016,06,16,11,39,15.30
2016,06,16,11,40,15.30
2016,06,16,11,41,15.30
2016,06,16,11,42,15.40
2016,06,16,11,43,15.40
2016,06,16,11,44,15.50
2016,06,16,11,45,15.60
2016,06,16,11,46,15.60
2016,06,16,11,47,15.60
2016,06,16,11,48,15.60
2016,06,16,11,49,15.60
2016,06,16,11,50,15.70
2016,06,16,11,51,15.70
2016,06,16,11,52,15.80
2016,06,16,11,53,15.90
2016,06,16,11,54,16.00
2016,06,16,11,55,16.10
2016,06,16,11,56,16.10
2016,06,16,11,57,16.10
2016,06,16,11,58,16.00
2016,06,16,11,59,15.90
2016,06,16,12,00,15.80
2016,06,16,12,01,15.80
2016,06,16,12,02,15.70
2016,06,16,12,03,15.70
2016,06,16,12,04,15.70
2016,06,16,12,05,15.70
2016,06,16,12,06,15.70
2016,06,16,12,07,15.70
2016,06,16,12,08,15.70
2016,06,16,12,09,15.80
2016,06,16,12,10,15.80
2016,06,16,12,11,15.80
2016,06,16,12,12,15.70
2016,06,16,12,13,15.60
2016,06,16,12,14,15.60
2016,06,16,12,15,15.50
2016,06,16,12,16,15.40
2016,06,16,12,17,15.40
2016,06,16,12,18,15.30
2016,06,16,12,19,15.20
2016,06,16,12,20,15.20
2016,06,16,12,21,15.30
2016,06,16,12,22,15.30
2016,06,16,12,23,15.40
2016,06,16,12,24,15.40
2016,06,16,12,25,15.50
2016,06,16,12,26,15.60
2016,06,16,12,27,15.60
2016,06,16,12,28,15.60
2016,06,16,12,29,15.60
2016,06,16,12,30,15.60
2016,06,16,12,31,15.60
2016,06,16,12,32,15.70
2016,06,16,12,33,15.60
2016,06,16,12,34,15.60
2016,06,16,12,35,15.60
2016,06,16,12,36,15.60
2016,06,16,12,37,15.60
2016,06,16,12,38,15.60
2016,06,16,12,39,15.50
2016,06,16,12,40,15.30
2016,06,16,12,41,15.00
2016,06,16,12,42,14.90
2016,06,16,12,43,14.60
2016,06,16,12,44,14.40
2016,06,16,12,45,14.20
2016,06,16,12,46,14.00
2016,06,16,12,47,13.90
2016,06,16,12,48,13.80
2016,06,16,12,49,13.80
2016,06,16,12,50,13.70
2016,06,16,12,51,13.70
2016,06,16,12,52,13.70
2016,06,16,12,53,13.60
2016,06,16,12,54,13.60
2016,06,16,12,55,13.60
2016,06,16,12,56,13.60
2016,06,16,12,57,13.60
2016,06,16,12,58,13.60
2016,06,16,12,59,13.60
2016,06,16,13,00,13.60
2016,06,16,13,01,13.60
2016,06,16,13,02,13.60
2016,06,16,13,03,13.60
2016,06,16,13,04,13.60
2016,06,16,13,05,13.60
2016,06,16,13,06,13.60
2016,06,16,13,07,13.60
2016,06,16,13,08,13.60
2016,06,16,13,09,13.70
2016,06,16,13,10,13.70
2016,06,16,13,11,13.70
2016,06,16,13,12,13.70
2016,06,16,13,13,13.70
2016,06,16,13,14,13.70
2016,06,16,13,15,13.70
2016,06,16,13,16,13.80
2016,06,16,13,17,13.80
2016,06,16,13,18,13.80
2016,06,16,13,19,13.80
2016,06,16,13,20,13.80
2016,06,16,13,21,13.90
2016,06,16,13,22,13.90
2016,06,16,13,23,14.00
2016,06,16,13,24,14.00
2016,06,16,13,25,14.10
2016,06,16,13,26,14.10
2016,06,16,13,27,14.10
2016,06,16,13,28,14.10
2016,06,16,13,29,14.20
2016,06,16,13,30,14.20
2016,06,16,13,31,14.20
2016,06,16,13,32,14.20
2016,06,16,13,33,14.20
2016,06,16,13,34,14.30
2016,06,16,13,35,14.30
2016,06,16,13,36,14.40
2016,06,16,13,37,14.40
2016,06,16,13,38,14.50
2016,06,16,13,39,14.50
2016,06,16,13,40,14.60
2016,06,16,13,41,14.70
2016,06,16,13,42,14.80
2016,06,16,13,43,14.90
2016,06,16,13,44,15.00
2016,06,16,13,45,15.10
2016,06,16,13,46,15.20
2016,06,16,13,47,15.20
2016,06,16,13,48,15.10
2016,06,16,13,49,15.10
2016,06,16,13,50,15.10
2016,06,16,13,51,15.00
2016,06,16,13,52,15.00
2016,06,16,13,53,15.00
2016,06,16,13,54,15.00
2016,06,16,13,55,14.90
2016,06,16,13,56,14.80
2016,06,16,13,57,14.80
2016,06,16,13,58,14.80
2016,06,16,13,59,14.70
2016,06,16,14,00,14.70
2016,06,16,14,01,14.70
2016,06,16,14,02,14.70
2016,06,16,14,03,14.60
2016,06,16,14,04,14.70
2016,06,16,14,05,14.60
2016,06,16,14,06,14.60
2016,06,16,14,07,14.70
2016,06,16,14,08,14.70
2016,06,16,14,09,14.70
2016,06,16,14,10,14.80
2016,06,16,14,11,14.80
2016,06,16,14,12,14.90
2016,06,16,14,13,14.90
2016,06,16,14,14,15.00
2016,06,16,14,15,15.00
2016,06,16,14,16,15.00
2016,06,16,14,17,15.00
2016,06,16,14,18,15.00
2016,06,16,14,19,15.00
2016,06,16,14,20,15.20
2016,06,16,14,21,15.20
2016,06,16,14,22,15.20
2016,06,16,14,23,15.20
2016,06,16,14,24,15.10
2016,06,16,14,25,15.10
2016,06,16,14,26,15.10
2016,06,16,14,27,15.20
2016,06,16,14,28,15.30
2016,06,16,14,29,15.30
2016,06,16,14,30,15.40
2016,06,16,14,31,15.50
2016,06,16,14,32,15.50
2016,06,16,14,33,15.40
2016,06,16,14,34,15.40
2016,06,16,14,35,15.30
2016,06,16,14,36,15.30
2016,06,16,14,37,15.20
2016,06,16,14,38,15.30
2016,06,16,14,39,15.30
2016,06,16,14,40,15.30
2016,06,16,14,41,15.30
2016,06,16,14,42,15.50
2016,06,16,14,43,15.60
2016,06,16,14,44,15.70
2016,06,16,14,45,15.90
2016,06,16,14,46,16.10
2016,06,16,14,47,16.20
2016,06,16,14,48,16.30
2016,06,16,14,49,16.30
2016,06,16,14,50,16.40
2016,06,16,14,51,16.50
2016,06,16,14,52,16.60
2016,06,16,14,53,16.60
2016,06,16,14,54,16.70
2016,06,16,14,55,16.70
2016,06,16,14,56,16.70
2016,06,16,14,57,16.70
2016,06,16,14,58,16.70
2016,06,16,14,59,16.70
2016,06,16,15,00,16.70
2016,06,16,15,01,16.60
2016,06,16,15,02,16.60
2016,06,16,15,03,16.70
2016,06,16,15,04,16.70
2016,06,16,15,05,16.90
2016,06,16,15,06,17.00
2016,06,16,15,07,17.10
2016,06,16,15,08,17.20
2016,06,16,15,09,17.30
2016,06,16,15,10,17.40
2016,06,16,15,11,17.50
2016,06,16,15,12,17.60
2016,06,16,15,13,17.50
2016,06,16,15,14,17.50
2016,06,16,15,15,17.40
2016,06,16,15,16,17.30
2016,06,16,15,17,17.20
2016,06,16,15,18,17.20
2016,06,16,15,19,17.20
2016,06,16,15,20,17.20
2016,06,16,15,21,17.20
2016,06,16,15,22,17.30
2016,06,16,15,23,17.30
2016,06,16,15,24,17.30
2016,06,16,15,25,17.30
2016,06,16,15,26,17.20
2016,06,16,15,27,17.10
2016,06,16,15,28,17.00
2016,06,16,15,29,17.00
2016,06,16,15,30,17.10
2016,06,16,15,31,17.10
2016,06,16,15,32,17.30
2016,06,16,15,33,17.40
2016,06,16,15,34,17.50
2016,06,16,15,35,17.60
2016,06,16,15,36,17.60
2016,06,16,15,37,17.70
2016,06,16,15,38,17.90
2016,06,16,15,39,18.00
2016,06,16,15,40,18.20
2016,06,16,15,41,18.20
2016,06,16,15,42,18.30
2016,06,16,15,43,18.30
2016,06,16,15,44,18.20
2016,06,16,15,45,18.20
2016,06,16,15,46,18.20
2016,06,16,15,47,18.10
2016,06,16,15,48,18.00
2016,06,16,15,49,17.90
2016,06,16,15,50,17.90
2016,06,16,15,51,17.90
2016,06,16,15,52,18.00
2016,06,16,15,53,18.00
2016,06,16,15,54,18.00
2016,06,16,15,55,17.90
2016,06,16,15,56,17.90
2016,06,16,15,57,17.80
2016,06,16,15,58,17.80
2016,06,16,15,59,17.90
2016,06,16,16,00,17.90
2016,06,16,16,01,17.90
2016,06,16,16,02,18.00
2016,06,16,16,03,18.10
2016,06,16,16,04,18.10
2016,06,16,16,05,18.20
2016,06,16,16,06,18.30
2016,06,16,16,07,18.30
2016,06,16,16,08,18.20
2016,06,16,16,09,18.30
2016,06,16,16,10,18.30
2016,06,16,16,11,18.20
2016,06,16,16,12,18.10
2016,06,16,16,13,18.00
2016,06,16,16,14,17.90
2016,06,16,16,15,17.80
2016,06,16,16,16,17.60
2016,06,16,16,17,17.50
2016,06,16,16,18,17.40
2016,06,16,16,19,17.20
2016,06,16,16,20,17.00
2016,06,16,16,21,16.90
2016,06,16,16,22,16.80
2016,06,16,16,23,16.80
2016,06,16,16,24,16.70
2016,06,16,16,25,16.70
2016,06,16,16,26,16.80
2016,06,16,16,27,16.90
2016,06,16,16,28,17.00
2016,06,16,16,29,17.10
2016,06,16,16,30,17.30
2016,06,16,16,31,17.40
2016,06,16,16,32,17.50
2016,06,16,16,33,17.50
2016,06,16,16,34,17.60
2016,06,16,16,35,17.70
2016,06,16,16,36,17.80
2016,06,16,16,37,17.80
2016,06,16,16,38,17.80
2016,06,16,16,39,17.90
2016,06,16,16,40,18.00
2016,06,16,16,41,18.10
2016,06,16,16,42,18.20
2016,06,16,16,43,18.30
2016,06,16,16,44,18.40
2016,06,16,16,45,18.50
2016,06,16,16,46,18.60
2016,06,16,16,47,18.60
2016,06,16,16,48,18.60
2016,06,16,16,49,18.60
2016,06,16,16,50,18.50
2016,06,16,16,51,18.50
2016,06,16,16,52,18.50
2016,06,16,16,53,18.40
2016,06,16,16,54,18.40
2016,06,16,16,55,18.40
2016,06,16,16,56,18.30
2016,06,16,16,57,18.30
2016,06,16,16,58,18.20
2016,06,16,16,59,18.20
2016,06,16,17,00,18.10
2016,06,16,17,01,18.10
2016,06,16,17,02,18.00
2016,06,16,17,03,18.00
2016,06,16,17,04,17.90
2016,06,16,17,05,17.90
2016,06,16,17,06,17.80
2016,06,16,17,07,17.80
2016,06,16,17,08,17.80
2016,06,16,17,09,17.70
2016,06,16,17,10,17.70
2016,06,16,17,11,17.70
2016,06,16,17,12,17.60
2016,06,16,17,13,17.60
2016,06,16,17,14,17.60
2016,06,16,17,15,17.50
2016,06,16,17,16,17.50
2016,06,16,17,17,17.40
2016,06,16,17,18,17.40
2016,06,16,17,19,17.40
2016,06,16,17,20,17.40
2016,06,16,17,21,17.40
2016,06,16,17,22,17.40
2016,06,16,17,23,17.40
2016,06,16,17,24,17.30
2016,06,16,17,25,17.30
2016,06,16,17,26,17.30
2016,06,16,17,27,17.30
2016,06,16,17,28,17.30
2016,06,16,17,29,17.30
2016,06,16,17,30,17.30
2016,06,16,17,31,17.30
2016,06,16,17,32,17.30
2016,06,16,17,33,17.20
2016,06,16,17,34,17.20
2016,06,16,17,35,17.20
2016,06,16,17,36,17.20
2016,06,16,17,37,17.20
2016,06,16,17,38,17.10
2016,06,16,17,39,17.10
2016,06,16,17,40,17.10
2016,06,16,17,41,17.10
2016,06,16,17,42,17.10